Location: Claremont
(33.9858°S, 18.4575°E)
Time: 11:59:16
(UTC+00:00)

Cosmos 921 Rocket - Pass Details

Date: 03 March 2021
Orbit: 571 x 632 km, 75.8° (Epoch: 09 April)

Event Time Altitude Azimuth Distance (km) Brightness Sun altitude
Rises 18:47:12 0° 198° (SSW) 2,840 7.0 -18.3°
Reaches altitude 10° 18:49:27 10° 199° (SSW) 1,924 6.1 -18.8°
Maximum altitude 18:53:42 72° 282° (WNW) 615 3.1 -19.6°
Enters shadow 18:56:00 26° 2° (N) 1,155 4.2 -20.0°
